Theta_e
292 296 293 291 290 290 295 295 292 294 295 295 294 294 294 295 295 295 295 295 295 295 295 295 294 295 296 296 296 296 297 296 295 295 294 293 293 293 292 292 292 292 292 291
289 296 295 289 290 290 289 288 289 295 295 296 297 295 293 294 296 294 295 295 296 296 295 296 296 295 296 294 295 295 295 295 295 296 295 294 292 292 291 291 291 291 291 290
283 291 292 285 288 288 287 286 285 289 292 292 291 293 294 295 295 295 295 295 295 295 295 295 296 296 294 294 295 295 295 296 296 295 295 294 293 292 291 291 290 290 290 290
282 285 278 286 293 294 287 288 287 287 288 290 292 294 296 297 295 296 296 295 296 296 294 294 295 296 296 296 296 296 295 296 296 296 294 294 293 292 291 290 290 290 290 290
281 281 287 290 292 291 289 285 290 287 289 290 293 293 292 296 297 294 294 294 294 294 294 294 294 296 296 295 295 295 295 294 296 296 294 293 292 291 291 289 289 290 290 290
286 282 280 287 293 297 295 279 291 293 293 294 293 286 290 295 295 293 294 294 294 294 294 294 293 295 294 294 294 294 295 296 296 296 294 292 291 290 290 289 290 291 291 290
282 282 283 291 295 298 282 280 292 293 295 296 293 295 298 296 293 294 294 294 295 295 294 293 293 294 293 293 293 295 297 297 297 296 294 293 291 290 290 289 290 290 290 290
281 276 272 294 294 287 290 293 296 294 294 295 294 293 293 294 292 293 293 294 294 292 292 293 294 294 293 293 295 296 297 296 296 295 295 295 292 291 291 289 288 288 287 288
280 279 288 292 290 292 293 293 294 293 292 292 292 291 292 291 291 292 292 292 293 292 292 293 294 293 293 295 295 295 295 294 293 294 295 294 291 291 290 289 287 287 286 285
284 289 292 297 299 297 296 294 297 296 295 294 292 293 293 292 291 292 293 293 294 293 292 293 294 296 294 296 295 294 294 293 293 292 293 293 292 291 290 289 288 288 287 284
285 289 293 292 294 299 300 299 296 297 297 296 294 293 293 292 292 293 294 294 294 293 293 294 296 297 299 298 298 296 294 295 293 294 293 293 292 292 292 291 290 289 288 286
283 290 288 289 293 295 294 294 296 296 295 296 295 294 294 293 293 293 293 293 292 293 295 296 295 297 299 299 299 297 296 295 294 296 297 296 293 293 293 293 293 291 291 289
291 293 292 293 295 297 294 295 297 296 295 294 295 294 293 293 293 295 293 293 293 294 295 296 296 299 300 299 298 298 297 298 298 298 298 297 297 296 295 296 292 292 290 290
294 294 291 295 292 296 298 301 301 300 300 299 297 297 296 293 294 295 294 295 296 297 296 295 296 296 299 301 301 300 298 298 297 296 299 299 298 297 295 291 288 288 289 288
295 295 294 298 299 299 299 300 299 300 301 301 302 302 302 301 299 297 298 299 298 297 298 298 299 300 302 301 302 301 299 298 297 296 298 299 297 297 295 291 286 284 284 285
299 299 300 298 298 299 298 297 298 299 298 299 299 302 302 301 300 299 298 299 297 295 297 297 297 299 301 302 300 300 298 297 296 298 294 293 296 292 286 284 283 283 282 281
295 293 295 295 296 295 296 297 297 298 298 298 299 300 301 300 299 298 297 297 296 296 296 296 296 299 301 299 295 295 294 296 289 292 293 295 289 285 284 283 282 282 281 282
298 297 298 297 297 297 297 299 300 300 299 301 303 301 299 297 296 296 296 296 296 296 296 297 298 298 298 297 295 294 292 292 292 294 293 287 285 284 283 283 283 282 281 282
299 299 300 300 299 299 300 300 300 302 302 301 301 299 297 297 297 297 295 295 294 293 294 296 298 296 295 296 294 292 291 291 291 289 287 285 284 283 283 283 282 282 281 282
300 300 300 300 302 301 301 302 301 301 300 300 299 297 296 297 298 297 295 295 295 295 294 295 296 295 294 295 293 292 291 290 289 286 285 284 284 283 283 283 283 283 282 282
301 301 300 299 299 301 303 301 300 299 299 300 298 297 297 297 297 297 293 292 294 295 294 294 293 294 293 290 291 292 291 290 287 286 285 284 284 284 283 283 283 283 283 282
299 298 298 299 299 299 300 299 300 299 298 297 298 298 297 296 296 295 294 293 294 289 294 292 291 288 290 283 292 292 291 290 287 286 285 286 285 284 283 283 282 283 283 282
299 299 299 300 298 298 298 298 298 299 297 297 297 297 296 295 294 293 292 295 295 292 294 292 289 284 282 286 292 292 291 291 288 286 285 286 284 284 283 283 283 284 282 281
298 299 299 299 298 297 297 297 298 299 298 299 299 299 296 294 294 295 295 291 289 289 292 292 288 283 283 289 292 291 291 291 289 287 286 285 284 286 287 286 286 286 283 282
299 300 300 298 297 297 297 297 296 298 298 297 298 299 299 297 297 296 294 294 288 289 293 288 287 286 288 290 290 292 291 290 289 287 287 286 288 288 287 287 287 286 283 282
299 298 298 298 298 299 298 296 294 296 296 297 297 298 298 297 297 296 296 292 294 290 292 294 293 290 290 291 292 292 291 291 289 287 286 286 286 285 286 288 287 285 285 284
300 297 299 297 297 297 296 296 294 296 297 298 297 298 297 297 296 294 292 295 294 294 294 295 294 292 294 293 294 294 292 290 287 288 287 286 285 284 286 286 285 285 283 278
Wind_Speed
1 5 5 7 8 12 9 5 8 11 15 20 22 17 17 14 15 15 13 14 11 9 6 7 6 6 5 5 5 4 6 5 5 6 5 4 3 0 1 2 2 2 3 5
6 2 6 5 13 12 9 9 7 7 10 4 13 12 16 16 16 16 14 11 10 9 8 8 7 6 5 5 5 5 6 5 5 5 5 6 4 3 3 3 3 3 4 4
5 2 5 3 6 8 2 9 6 5 2 12 14 16 16 15 15 15 13 11 10 9 7 5 6 5 6 5 5 6 5 4 5 6 5 6 5 4 5 5 3 5 6 5
3 4 3 5 1 2 12 11 12 13 10 8 11 9 8 12 16 13 12 11 10 8 6 6 4 4 6 5 5 5 4 4 4 4 3 4 4 6 5 4 6 6 7 7
1 2 4 2 4 4 4 7 5 9 11 10 14 20 13 8 6 5 6 6 5 6 5 5 6 6 6 5 4 4 4 4 4 4 4 4 5 6 5 4 5 6 6 7
2 0 1 1 4 5 6 3 1 9 11 12 9 14 2 8 3 5 6 6 7 6 5 6 4 6 7 5 3 3 4 5 5 5 5 6 6 6 4 4 6 5 7 7
3 3 2 3 4 6 3 5 3 9 8 5 4 4 7 6 1 2 4 7 6 6 7 6 5 6 5 4 5 5 5 5 5 5 6 6 5 3 5 6 5 6 6 7
3 4 4 4 2 2 1 4 4 3 5 5 2 5 7 7 7 6 5 5 6 6 5 5 5 6 6 7 8 7 6 6 5 5 4 4 5 5 6 5 4 6 6 7
4 5 5 5 2 2 2 2 1 5 4 6 6 5 7 5 6 5 6 6 5 6 7 6 6 6 6 10 7 7 5 7 7 6 6 4 4 6 4 2 3 6 4 5
3 3 4 2 1 0 2 1 2 4 5 6 7 7 6 5 5 6 5 5 5 7 7 7 7 6 9 9 7 5 7 8 7 6 7 6 4 4 4 4 4 5 5 4
0 1 2 4 1 3 2 2 2 5 7 8 6 6 7 6 6 6 7 7 6 6 7 9 8 8 10 11 10 10 8 10 8 6 7 6 6 6 5 6 6 4 4 4
6 7 5 5 5 4 5 4 6 7 5 6 7 7 7 7 7 6 7 6 6 7 8 11 7 8 10 9 9 10 10 9 8 8 8 7 3 6 6 9 12 8 11 7
5 5 6 6 6 4 3 4 5 6 6 6 6 7 6 6 7 7 8 7 7 10 10 10 9 9 8 6 5 8 8 10 9 7 6 2 2 2 4 8 10 5 6 4
5 6 2 1 5 4 4 2 4 4 2 0 3 3 2 4 3 6 7 8 7 7 7 7 6 7 6 6 5 6 7 12 6 4 4 3 2 2 3 3 3 4 5 4
5 4 6 4 3 4 3 2 2 3 4 5 4 6 5 5 7 7 5 5 4 4 5 3 4 6 4 4 5 4 4 4 3 3 2 2 3 3 1 2 1 2 3 5
4 4 4 3 4 2 1 1 1 2 3 4 3 4 6 5 6 6 5 1 1 5 5 5 5 5 5 5 5 4 3 5 3 3 2 1 1 3 3 2 2 2 2 2
6 3 3 5 6 4 4 4 4 3 3 3 6 4 6 4 1 1 3 2 4 6 5 4 6 5 5 5 5 3 2 2 4 3 2 3 3 4 2 1 2 2 2 2
6 6 7 6 5 5 6 7 6 5 5 5 3 4 4 4 5 4 4 2 4 6 4 4 4 4 3 2 2 2 3 3 2 3 3 4 4 3 1 1 2 2 3 3
8 7 6 6 7 6 4 4 4 6 6 3 5 7 6 5 4 3 1 1 1 2 3 5 3 2 2 1 3 3 3 3 3 2 4 5 3 2 1 1 2 3 3 3
5 5 6 7 7 7 7 5 3 5 6 4 4 2 4 5 4 3 3 4 4 4 3 2 1 2 1 2 3 2 2 3 3 4 4 3 3 3 2 2 2 3 4 4
8 7 8 6 7 7 7 6 7 7 6 5 6 7 6 5 5 4 3 2 5 4 3 3 3 2 1 2 2 3 4 3 4 4 4 4 3 3 3 3 3 3 4 4
7 6 5 6 6 6 6 7 7 5 5 6 6 4 5 5 4 4 5 6 3 5 4 3 3 3 3 2 2 4 4 4 5 4 4 4 4 4 5 4 4 4 4 4
7 6 6 7 8 6 4 3 5 6 6 7 6 6 6 5 5 4 5 6 5 6 5 5 6 6 5 4 4 4 5 6 5 5 5 4 5 5 4 5 4 4 4 5
6 6 9 6 5 5 6 6 7 8 7 6 6 6 6 4 4 5 5 5 6 6 6 5 6 7 6 4 4 5 5 5 5 5 5 5 5 4 5 5 4 3 4 5
4 6 6 7 7 6 7 6 5 6 6 7 7 6 7 5 5 4 4 5 6 6 5 7 9 9 5 5 5 5 5 5 5 5 5 5 5 4 4 3 4 3 3 4
4 3 5 5 5 4 4 4 4 4 5 5 5 6 5 4 4 5 5 6 6 6 6 6 5 6 6 6 7 6 5 5 5 4 4 4 3 3 4 3 3 3 3 3
3 4 4 4 4 4 4 5 5 6 6 5 6 5 5 5 6 5 6 7 6 6 6 7 6 6 6 7 7 6 5 4 4 4 2 1 1 2 1 1 2 3 3 3
Wind_Direction
254 278 91 69 15 344 212 228 184 233 206 199 194 180 164 146 141 142 135 139 152 141 144 138 124 120 137 138 127 134 124 130 146 160 171 183 203 207 356 33 7 347 350 350
294 254 53 50 17 8 33 350 314 288 233 259 155 136 140 139 139 139 143 145 143 149 156 148 147 138 143 126 119 129 129 129 134 170 187 206 225 250 289 304 316 326 316 300
266 343 165 74 17 26 8 13 299 266 250 122 129 144 143 138 135 139 143 146 152 160 153 146 132 146 139 136 129 120 129 144 150 170 194 218 229 256 276 283 282 282 284 280
243 35 249 159 191 228 74 27 20 30 41 72 106 81 94 133 139 146 154 155 151 154 139 145 130 109 120 128 139 141 154 167 193 204 203 219 238 252 268 269 267 269 275 268
300 104 109 182 8 7 25 35 11 63 53 74 103 83 36 23 67 113 119 126 137 136 137 137 138 145 130 140 153 163 188 221 237 223 236 251 255 260 256 252 268 255 254 276
161 37 46 301 304 334 331 319 206 79 57 46 76 81 2 353 22 92 98 121 134 131 121 145 151 148 143 167 170 214 250 258 260 251 238 251 257 270 252 234 266 280 280 250
27 63 2 279 302 334 68 248 81 107 93 61 65 157 198 192 287 115 127 131 135 142 161 180 162 150 166 181 218 230 232 239 241 245 245 252 272 247 264 267 267 275 271 282
7 56 333 349 352 156 283 16 84 105 163 184 178 132 142 152 159 147 128 120 147 154 195 211 192 166 198 213 229 223 220 233 248 254 254 241 247 280 278 263 284 288 296 294
142 215 248 284 31 103 110 136 131 119 132 134 126 126 143 172 168 185 187 167 175 190 216 237 221 191 218 243 240 242 240 246 244 253 259 224 239 267 295 269 258 279 277 273
62 310 323 84 80 250 199 126 219 128 147 160 157 166 188 193 196 206 208 200 201 197 217 240 236 216 227 249 239 228 238 248 246 233 249 248 243 238 250 272 281 267 272 265
98 274 65 346 252 208 236 205 111 152 172 189 169 194 191 210 211 220 220 219 212 210 226 241 238 227 235 237 236 234 239 250 246 228 233 240 231 225 228 245 205 245 253 233
218 215 160 223 210 197 170 162 178 168 185 209 191 201 198 218 216 223 231 223 230 237 239 250 251 244 245 236 227 230 235 244 244 244 243 241 277 323 226 254 281 239 241 221
205 177 186 206 220 224 204 252 251 202 198 189 221 207 192 220 224 225 229 232 230 232 231 241 246 257 266 260 222 234 246 260 260 256 260 197 193 180 348 306 297 0 30 48
149 122 59 245 245 246 234 50 79 81 35 273 202 83 308 265 292 233 233 243 263 249 247 248 250 265 286 273 261 259 255 258 255 244 197 205 228 219 198 246 316 321 345 2
214 231 205 170 157 181 121 101 89 80 5 306 313 111 54 327 283 267 263 259 267 268 271 277 291 285 295 293 275 299 279 259 240 195 178 177 145 137 116 288 292 287 318 343
130 128 169 213 242 313 298 254 183 229 250 239 216 169 237 236 249 268 277 307 303 290 291 300 305 282 305 312 314 301 262 259 184 134 149 157 352 68 87 56 357 343 347 309
130 194 228 252 230 220 231 233 222 253 251 254 267 253 226 225 142 321 314 296 268 278 289 274 268 306 309 314 309 297 252 102 121 123 109 98 109 105 87 39 351 330 305 288
184 207 197 204 198 213 237 224 213 222 229 233 252 150 158 192 215 220 239 282 316 299 281 277 282 284 302 341 55 68 99 130 114 109 108 100 109 97 65 9 339 321 302 293
205 205 205 220 220 221 238 249 227 219 242 269 196 204 206 207 191 207 185 268 306 337 290 328 311 158 141 112 95 89 110 117 116 123 132 133 121 149 140 277 301 312 295 289
234 227 220 234 235 207 230 226 237 216 215 197 222 197 228 239 207 223 192 218 217 219 275 275 97 197 174 215 157 144 136 155 166 161 158 167 182 182 194 260 305 308 299 284
240 242 261 234 223 220 206 181 175 210 221 222 191 218 228 217 201 184 185 223 257 226 203 155 169 188 229 245 239 189 187 185 175 183 192 206 216 215 221 242 266 283 292 285
253 231 218 207 186 187 186 182 192 217 202 209 211 220 223 239 224 233 229 212 238 200 188 213 227 204 212 236 234 217 213 204 204 204 208 217 213 226 238 241 251 271 278 283
230 232 186 187 179 195 136 188 217 220 225 220 196 216 219 219 208 190 253 238 213 199 203 212 209 207 225 240 249 217 205 220 221 206 221 231 233 234 242 246 251 264 281 285
249 217 182 177 126 143 186 233 227 223 216 241 224 207 210 222 262 225 242 255 235 190 212 211 209 215 206 224 233 232 237 241 227 217 224 230 238 236 237 236 234 256 274 285
269 251 161 160 175 202 189 211 212 233 222 238 247 239 228 201 196 245 231 245 219 205 224 222 217 216 217 223 229 226 229 225 219 202 213 224 237 244 256 244 235 252 278 275
294 270 269 200 195 198 199 202 198 217 203 232 248 241 233 222 223 234 242 238 231 214 228 238 224 215 218 220 226 228 225 233 217 205 205 227 247 269 265 255 247 256 260 269
266 234 254 255 237 219 206 213 210 218 204 193 224 237 228 237 235 227 232 240 224 220 223 236 234 231 234 228 223 220 200 186 155 147 128 18 288 277 305 20 344 311 306 297